EW8974 Weather Reports


Display with metric or nautical units.
time (UTC)temp
F
wind
direction
speed
MPH
gust
MPH
rain 1hr
in
rain 24hr
in
rain mn
in
humidity
%
barometer
mb
20210803193204 92 117 0.0 2.0 0.00 0.00 0.00 45 1015.6
20210803191848 90 257 0.0 1.0 0.00 0.00 0.00 49 1015.8
20210803190209 91 117 0.0 3.0 0.00 0.00 0.00 50 1015.9
20210803184814 91 106 0.0 2.0 0.00 0.00 0.00 51 1016.2
20210803183315 90 169 0.0 3.0 0.00 0.00 0.00 50 1016.4
20210803181702 90 105 0.0 3.0 0.00 0.00 0.00 51 1016.5
20210803180136 90 97 0.0 4.0 0.00 0.00 0.00 52 1016.6
20210803174633 89 127 1.0 3.0 0.00 0.00 0.00 54 1016.7
20210803173142 89 116 0.0 1.0 0.00 0.00 0.00 53 1016.9
20210803171611 90 256 0.0 4.0 0.00 0.00 0.00 54 1017.0
20210803170224 89 232 0.0 3.0 0.00 0.00 0.00 55 1016.9
20210803164614 88 117 0.0 2.0 0.00 0.00 0.00 57 1017.2
20210803163216 88 84 0.0 1.0 0.00 0.00 0.00 61 1017.2
20210803161613 86 297 0.0 3.0 0.00 0.00 0.00 58 1017.3
20210803160144 85 137 0.0 2.0 0.00 0.00 0.00 63 1017.3
20210803154604 85 323 0.0 1.0 0.00 0.00 0.00 66 1017.3
20210803153102 83 104 0.0 1.0 0.00 0.00 0.00 68 1017.4
20210803151549 82 58 0.0 3.0 0.00 0.00 0.00 71 1017.3
20210803150045 81 137 0.0 3.0 0.00 0.00 0.00 74 1017.4
20210803144525 80 290 0.0 1.0 0.00 0.00 0.00 79 1017.3
20210803143020 78 286 0.0 1.0 0.00 0.00 0.00 81 1017.1
20210803141510 77 244 0.0 2.0 0.00 0.00 0.00 86 1017.0
20210803140033 75 292 0.0 2.0 0.00 0.00 0.00 91 1017.2
20210803134533 74 318 0.0 0.0 0.00 0.00 0.00 96 1017.1
20210803133005 72 318 0.0 0.0 0.00 0.00 0.00 97 1017.1
20210803131728 72 290 0.0 1.0 0.00 0.00 0.00 97 1017.0
20210803131503 72 290 0.0 1.0 0.00 0.00 0.00 97 1017.0
20210803130222 71 262 0.0 0.0 0.00 0.00 0.00 97 1017.0
20210803124730 71 351 0.0 0.0 0.00 0.02 0.00 97 1016.9
20210803123221 70 351 0.0 0.0 0.00 0.02 0.00 97 1016.8
20210803121636 70 351 0.0 0.0 0.00 0.02 0.00 97 1016.7
20210803120211 70 351 0.0 0.0 0.00 0.02 0.00 97 1016.6
20210803114619 70 351 0.0 0.0 0.00 0.27 0.00 96 1016.5
20210803113218 71 351 0.0 0.0 0.00 0.27 0.00 97 1016.3
20210803111708 71 351 0.0 0.0 0.00 0.27 0.00 97 1016.2
20210803110204 70 351 0.0 0.0 0.00 0.27 0.00 96 1016.1
20210803104559 71 351 0.0 0.0 0.00 0.34 0.00 96 1016.1
20210803103155 71 351 0.0 0.0 0.00 0.34 0.00 96 1016.0
20210803101626 71 351 0.0 0.0 0.00 0.34 0.00 96 1016.2
20210803100203 71 351 0.0 0.0 0.00 0.34 0.00 96 1016.3
20210803094620 71 351 0.0 0.0 0.00 0.34 0.00 96 1016.2
20210803093221 72 351 0.0 0.0 0.00 0.34 0.00 96 1016.4
20210803091605 72 351 0.0 0.0 0.00 0.34 0.00 96 1016.2
20210803090130 71 351 0.0 0.0 0.00 0.34 0.00 96 1016.3
20210803084556 72 351 0.0 0.0 0.00 0.54 0.00 95 1016.4
20210803083112 72 351 0.0 0.0 0.00 0.54 0.00 95 1016.3
20210803081640 72 351 0.0 0.0 0.00 0.54 0.00 95 1016.1
20210803074648 72 351 0.0 0.0 0.00 0.55 0.00 94 1016.4
20210803073148 73 351 0.0 0.0 0.00 0.55 0.00 94 1016.5
20210803071629 73 351 0.0 0.0 0.00 0.55 0.00 94 1016.5
20210803070102 73 351 0.0 0.0 0.00 0.55 0.00 93 1016.4
20210803064608 73 351 0.0 0.0 0.00 0.55 0.00 93 1016.6
20210803063121 73 351 0.0 0.0 0.00 0.55 0.00 93 1016.5
20210803061659 73 351 0.0 0.0 0.00 0.55 0.00 92 1016.6
20210803060045 74 351 0.0 0.0 0.00 0.55 0.00 92 1016.7
20210803054627 74 351 0.0 0.0 0.00 0.55 0.00 92 1016.6
20210803053031 74 351 0.0 0.0 0.00 0.55 0.00 91 1016.6
20210803051530 74 351 0.0 0.0 0.00 0.55 0.00 91 1016.7
20210803050045 74 351 0.0 0.0 0.00 0.55 0.00 91 1016.7
20210803044543 75 351 0.0 0.0 0.00 0.55 0.55 91 1016.7
20210803043028 75 351 0.0 0.0 0.00 0.55 0.55 90 1016.8
20210803041532 75 351 0.0 0.0 0.00 0.55 0.55 89 1016.7
20210803040036 75 351 0.0 0.0 0.00 0.55 0.55 88 1016.6
20210803034523 76 351 0.0 0.0 0.00 0.55 0.55 87 1016.8
20210803033015 76 351 0.0 0.0 0.00 0.55 0.55 86 1016.8
20210803031529 77 351 0.0 0.0 0.00 0.55 0.55 84 1016.6
20210803030014 77 351 0.0 1.0 0.00 0.55 0.55 83 1016.5
20210803024607 78 124 0.0 0.0 0.00 0.56 0.55 82 1016.3
20210803023022 78 296 0.0 1.0 0.00 0.56 0.55 82 1016.2
20210803021551 78 296 0.0 0.0 0.00 0.56 0.55 80 1016.1
20210803020023 79 296 0.0 1.0 0.00 0.56 0.55 78 1015.9
20210803014511 79 114 0.0 0.0 0.00 0.56 0.55 78 1015.9
20210803013019 79 116 0.0 1.0 0.00 0.56 0.55 77 1016.0
20210803011509 80 116 0.0 0.0 0.00 0.56 0.55 76 1015.7
20210803010008 81 116 0.0 0.0 0.00 0.56 0.55 75 1015.6
20210803004520 82 120 0.0 1.0 0.00 0.56 0.55 73 1015.5
20210803003047 82 229 0.0 1.0 0.00 0.56 0.55 72 1015.5
20210803001507 83 313 0.0 0.0 0.00 0.56 0.55 72 1015.4
20210803000036 83 306 0.0 3.0 0.00 0.56 0.55 71 1015.4
20210802234557 84 210 0.0 1.0 0.00 0.59 0.55 69 1015.3
20210802233028 84 313 0.0 3.0 0.00 0.59 0.55 69 1015.5
20210802231511 84 98 0.0 1.0 0.00 0.59 0.55 69 1015.6
20210802230005 85 328 0.0 2.0 0.00 0.59 0.55 68 1015.6
20210802224529 85 255 0.0 4.0 0.00 0.77 0.55 68 1015.6
20210802223003 85 120 0.0 2.0 0.00 0.77 0.55 68 1015.5
20210802221502 86 96 0.0 3.0 0.00 0.77 0.55 67 1015.3
20210802220020 86 118 0.0 3.0 0.00 0.77 0.55 68 1015.3
20210802214510 86 113 0.0 5.0 0.00 2.06 0.55 65 1015.4
20210802213155 87 65 0.0 4.0 0.00 2.06 0.55 61 1015.4
20210802211644 86 328 0.0 4.0 0.00 2.06 0.55 64 1015.4
20210802210201 86 60 0.0 4.0 0.00 2.06 0.55 67 1015.4
20210802204657 86 119 0.0 4.0 0.00 2.06 0.55 67 1015.4
20210802203148 86 238 0.0 2.0 0.00 2.06 0.55 66 1015.3
20210802201849 86 295 0.0 3.0 0.00 2.06 0.55 68 1015.5
20210802200153 85 239 0.0 3.0 0.00 2.06 0.55 67 1015.5
20210802194629 86 226 0.0 4.0 0.00 2.06 0.55 67 1015.7